Time,TemperatureF,DewpointF,PressureIn,WindDirection,WindDirectionDegrees,WindSpeedMPH,WindSpeedGustMPH,Humidity,HourlyPrecipIn,Conditions,Clouds,dailyrainin,SoftwareType,DateUTC
2013-02-18 00:10:00,16.2,4.0,30.00,SSW,200,1.0,-999.0,59,-99.99,,,0.00,weatherlink.com 1.10,2013-02-18 05:10:00,
2013-02-18 00:24:00,16.2,4.0,30.00,South,184,0.0,-999.0,58,-99.99,,,0.00,weatherlink.com 1.10,2013-02-18 05:24:00,
2013-02-18 00:40:00,16.3,4.0,30.00,South,180,1.0,-999.0,58,-99.99,,,0.00,weatherlink.com 1.10,2013-02-18 05:40:00,
2013-02-18 00:54:00,16.5,4.0,29.99,SSE,157,0.0,-999.0,59,-99.99,,,0.00,weatherlink.com 1.10,2013-02-18 05:54:00,
2013-02-18 01:09:00,16.6,4.0,29.99,NE,40,1.0,-999.0,59,-99.99,,,0.00,weatherlink.com 1.10,2013-02-18 06:09:00,
2013-02-18 01:25:00,16.8,5.0,29.98,SSW,201,0.0,-999.0,59,-99.99,,,0.00,weatherlink.com 1.10,2013-02-18 06:25:00,
2013-02-18 01:39:00,17.1,5.0,29.97,SSW,202,1.0,-999.0,60,-99.99,,,0.00,weatherlink.com 1.10,2013-02-18 06:39:00,
2013-02-18 01:55:00,17.7,6.0,29.96,SW,216,1.0,-999.0,60,-99.99,,,0.00,weatherlink.com 1.10,2013-02-18 06:55:00,
2013-02-18 02:10:00,18.3,6.0,29.96,NE,38,2.0,-999.0,59,-99.99,,,0.00,weatherlink.com 1.10,2013-02-18 07:10:00,
2013-02-18 02:24:00,18.9,6.0,29.95,SW,221,2.0,-999.0,58,-99.99,,,0.00,weatherlink.com 1.10,2013-02-18 07:24:00,
2013-02-18 02:39:00,19.4,7.0,29.95,ENE,61,0.0,-999.0,60,-99.99,,,0.00,weatherlink.com 1.10,2013-02-18 07:39:00,
2013-02-18 02:54:00,19.7,7.0,29.93,SSW,194,0.0,-999.0,59,-99.99,,,0.00,weatherlink.com 1.10,2013-02-18 07:54:00,
2013-02-18 03:10:00,20.2,8.0,29.92,SSW,196,2.0,-999.0,59,-99.99,,,0.00,weatherlink.com 1.10,2013-02-18 08:10:00,
2013-02-18 03:24:00,20.7,8.0,29.91,SW,214,3.0,-999.0,59,-99.99,,,0.00,weatherlink.com 1.10,2013-02-18 08:24:00,
2013-02-18 03:39:00,21.3,10.0,29.91,SW,215,1.0,-999.0,62,-99.99,,,0.00,weatherlink.com 1.10,2013-02-18 08:39:00,
2013-02-18 03:54:00,21.9,12.0,29.90,SSW,207,0.0,-999.0,65,-99.99,,,0.00,weatherlink.com 1.10,2013-02-18 08:54:00,
2013-02-18 04:09:00,22.4,13.0,29.89,SSW,202,5.0,-999.0,67,-99.99,,,0.00,weatherlink.com 1.10,2013-02-18 09:09:00,
2013-02-18 04:24:00,22.6,16.0,29.88,SSW,199,1.0,-999.0,75,-99.99,,,0.00,weatherlink.com 1.10,2013-02-18 09:24:00,
2013-02-18 04:40:00,22.5,17.0,29.86,SSW,195,1.0,-999.0,79,-99.99,,,0.00,weatherlink.com 1.10,2013-02-18 09:40:00,
2013-02-18 04:54:00,22.9,18.0,29.85,SW,222,1.0,-999.0,81,-99.99,,,0.00,weatherlink.com 1.10,2013-02-18 09:54:00,
2013-02-18 05:09:00,23.3,19.0,29.84,SSW,203,3.0,-999.0,83,-99.99,,,0.00,weatherlink.com 1.10,2013-02-18 10:09:00,
2013-02-18 05:24:00,23.5,19.0,29.83,West,280,0.0,-999.0,83,-99.99,,,0.00,weatherlink.com 1.10,2013-02-18 10:24:00,
2013-02-18 05:39:00,23.6,20.0,29.82,SW,229,3.0,-999.0,84,-99.99,,,0.00,weatherlink.com 1.10,2013-02-18 10:39:00,
2013-02-18 06:09:00,24.4,21.0,29.81,NNW,339,0.0,-999.0,86,-99.99,,,0.00,weatherlink.com 1.10,2013-02-18 11:09:00,
2013-02-18 06:24:00,24.8,22.0,29.81,SW,223,0.0,-999.0,87,-99.99,,,0.00,weatherlink.com 1.10,2013-02-18 11:24:00,
2013-02-18 06:39:00,25.1,22.0,29.81,SE,142,0.0,-999.0,87,-99.99,,,0.00,weatherlink.com 1.10,2013-02-18 11:39:00,
2013-02-18 06:54:00,25.5,23.0,29.80,WSW,245,2.0,-999.0,88,-99.99,,,0.00,weatherlink.com 1.10,2013-02-18 11:54:00,
2013-02-18 07:09:00,25.9,23.0,29.80,WNW,294,0.0,-999.0,88,-99.99,,,0.00,weatherlink.com 1.10,2013-02-18 12:09:00,
2013-02-18 07:24:00,26.2,23.0,29.78,ENE,78,0.0,-999.0,88,-99.99,,,0.00,weatherlink.com 1.10,2013-02-18 12:24:00,
2013-02-18 07:39:00,26.5,23.0,29.77,West,259,5.0,-999.0,88,-99.99,,,0.00,weatherlink.com 1.10,2013-02-18 12:39:00,
2013-02-18 07:54:00,26.8,24.0,29.77,SE,144,1.0,-999.0,87,-99.99,,,0.00,weatherlink.com 1.10,2013-02-18 12:54:00,
2013-02-18 08:09:00,27.0,24.0,29.76,SSE,167,2.0,-999.0,87,-99.99,,,0.00,weatherlink.com 1.10,2013-02-18 13:09:00,
2013-02-18 08:24:00,27.3,24.0,29.76,West,279,5.0,-999.0,87,-99.99,,,0.00,weatherlink.com 1.10,2013-02-18 13:24:00,
2013-02-18 08:39:00,27.6,24.0,29.75,South,190,3.0,-999.0,87,-99.99,,,0.00,weatherlink.com 1.10,2013-02-18 13:39:00,
2013-02-18 08:54:00,27.9,24.0,29.74,WNW,284,1.0,-999.0,86,-99.99,,,0.00,weatherlink.com 1.10,2013-02-18 13:54:00,
2013-02-18 09:09:00,28.3,24.0,29.73,SSW,205,2.0,-999.0,85,-99.99,,,0.00,weatherlink.com 1.10,2013-02-18 14:09:00,
2013-02-18 09:24:00,28.6,24.0,29.72,South,187,0.0,-999.0,84,-99.99,,,0.00,weatherlink.com 1.10,2013-02-18 14:24:00,
2013-02-18 09:39:00,28.9,24.0,29.73,SW,217,2.0,-999.0,83,-99.99,,,0.00,weatherlink.com 1.10,2013-02-18 14:39:00,
2013-02-18 09:54:00,29.3,25.0,29.71,South,184,1.0,-999.0,83,-99.99,,,0.00,weatherlink.com 1.10,2013-02-18 14:54:00,
2013-02-18 10:09:00,29.8,25.0,29.70,WSW,239,4.0,-999.0,82,-99.99,,,0.00,weatherlink.com 1.10,2013-02-18 15:09:00,
2013-02-18 10:24:00,30.4,26.0,29.70,NE,45,0.0,-999.0,82,-99.99,,,0.00,weatherlink.com 1.10,2013-02-18 15:24:00,
2013-02-18 10:39:00,30.9,26.0,29.70,NE,38,2.0,-999.0,81,-99.99,,,0.00,weatherlink.com 1.10,2013-02-18 15:39:00,
2013-02-18 10:54:00,31.0,26.0,29.70,ENE,70,1.0,-999.0,80,-99.99,,,0.00,weatherlink.com 1.10,2013-02-18 15:54:00,
2013-02-18 11:09:00,31.2,26.0,29.70,East,92,1.0,-999.0,80,-99.99,,,0.00,weatherlink.com 1.10,2013-02-18 16:09:00,
2013-02-18 11:24:00,31.2,26.0,29.69,SSW,195,2.0,-999.0,80,-99.99,,,0.00,weatherlink.com 1.10,2013-02-18 16:24:00,
2013-02-18 11:39:00,31.4,26.0,29.68,SW,222,0.0,-999.0,81,-99.99,,,0.00,weatherlink.com 1.10,2013-02-18 16:39:00,
2013-02-18 11:54:00,31.8,26.0,29.67,East,87,0.0,-999.0,80,-99.99,,,0.00,weatherlink.com 1.10,2013-02-18 16:54:00,
2013-02-18 12:09:00,32.2,27.0,29.66,SW,215,1.0,-999.0,80,-99.99,,,0.00,weatherlink.com 1.10,2013-02-18 17:09:00,
2013-02-18 12:24:00,32.3,26.0,29.66,SW,217,2.0,-999.0,79,-99.99,,,0.00,weatherlink.com 1.10,2013-02-18 17:24:00,
2013-02-18 12:39:00,32.5,27.0,29.64,SSE,156,1.0,-999.0,80,-99.99,,,0.00,weatherlink.com 1.10,2013-02-18 17:39:00,
2013-02-18 12:54:00,32.7,27.0,29.64,SSE,165,2.0,-999.0,80,-99.99,,,0.00,weatherlink.com 1.10,2013-02-18 17:54:00,
2013-02-18 13:09:00,33.0,27.0,29.63,North,360,0.0,-999.0,80,-99.99,,,0.00,weatherlink.com 1.10,2013-02-18 18:09:00,
2013-02-18 13:24:00,33.1,28.0,29.62,SSW,196,0.0,-999.0,80,-99.99,,,0.00,weatherlink.com 1.10,2013-02-18 18:24:00,
2013-02-18 13:39:00,33.2,28.0,29.62,NNW,347,1.0,-999.0,80,-99.99,,,0.00,weatherlink.com 1.10,2013-02-18 18:39:00,
2013-02-18 13:54:00,33.3,28.0,29.62,SSW,207,0.0,-999.0,81,-99.99,,,0.00,weatherlink.com 1.10,2013-02-18 18:54:00,
2013-02-18 14:09:00,33.5,28.0,29.61,SSW,210,0.0,-999.0,81,-99.99,,,0.00,weatherlink.com 1.10,2013-02-18 19:09:00,
2013-02-18 14:24:00,33.5,28.0,29.59,SSE,148,0.0,-999.0,81,-99.99,,,0.00,weatherlink.com 1.10,2013-02-18 19:24:00,
2013-02-18 14:39:00,34.0,29.0,29.59,SSW,202,1.0,-999.0,81,-99.99,,,0.00,weatherlink.com 1.10,2013-02-18 19:39:00,
2013-02-18 14:54:00,34.3,29.0,29.58,NE,47,2.0,-999.0,81,-99.99,,,0.01,weatherlink.com 1.10,2013-02-18 19:54:00,
2013-02-18 15:09:00,34.4,29.0,29.57,SSW,194,0.0,-999.0,81,-99.99,,,0.01,weatherlink.com 1.10,2013-02-18 20:09:00,
2013-02-18 15:24:00,34.6,29.0,29.57,East,84,0.0,-999.0,81,-99.99,,,0.01,weatherlink.com 1.10,2013-02-18 20:24:00,
2013-02-18 15:39:00,34.8,30.0,29.57,NE,34,0.0,-999.0,82,-99.99,,,0.01,weatherlink.com 1.10,2013-02-18 20:39:00,
2013-02-18 15:54:00,34.8,30.0,29.57,SSE,152,0.0,-999.0,82,-99.99,,,0.01,weatherlink.com 1.10,2013-02-18 20:54:00,
2013-02-18 16:09:00,35.0,30.0,29.56,SW,216,0.0,-999.0,82,-99.99,,,0.01,weatherlink.com 1.10,2013-02-18 21:09:00,
2013-02-18 16:24:00,35.2,30.0,29.55,NE,45,3.0,-999.0,82,-99.99,,,0.01,weatherlink.com 1.10,2013-02-18 21:24:00,
2013-02-18 16:39:00,35.4,30.0,29.55,SSW,202,0.0,-999.0,82,-99.99,,,0.01,weatherlink.com 1.10,2013-02-18 21:39:00,
2013-02-18 16:54:00,35.4,30.0,29.54,SSW,202,0.0,-999.0,82,-99.99,,,0.01,weatherlink.com 1.10,2013-02-18 21:54:00,
2013-02-18 17:09:00,35.3,31.0,29.54,South,172,0.0,-999.0,83,-99.99,,,0.02,weatherlink.com 1.10,2013-02-18 22:09:00,
2013-02-18 17:24:00,35.2,31.0,29.54,ESE,103,0.0,-999.0,83,-99.99,,,0.02,weatherlink.com 1.10,2013-02-18 22:24:00,
2013-02-18 17:39:00,35.0,31.0,29.54,West,263,1.0,-999.0,84,-99.99,,,0.02,weatherlink.com 1.10,2013-02-18 22:39:00,
2013-02-18 17:54:00,34.9,31.0,29.55,WSW,249,0.0,-999.0,84,-99.99,,,0.02,weatherlink.com 1.10,2013-02-18 22:54:00,
2013-02-18 18:09:00,34.7,31.0,29.55,SSE,164,1.0,-999.0,85,-99.99,,,0.02,weatherlink.com 1.10,2013-02-18 23:09:00,
2013-02-18 18:24:00,34.5,31.0,29.55,South,171,0.0,-999.0,86,-99.99,,,0.02,weatherlink.com 1.10,2013-02-18 23:24:00,
2013-02-18 18:39:00,34.1,31.0,29.55,South,171,0.0,-999.0,87,-99.99,,,0.02,weatherlink.com 1.10,2013-02-18 23:39:00,
2013-02-18 18:54:00,33.8,30.0,29.54,South,169,0.0,-999.0,87,-99.99,,,0.02,weatherlink.com 1.10,2013-02-18 23:54:00,
2013-02-18 19:09:00,33.6,30.0,29.54,South,171,0.0,-999.0,88,-99.99,,,0.03,weatherlink.com 1.10,2013-02-19 00:09:00,
2013-02-18 19:24:00,33.2,30.0,29.55,South,169,0.0,-999.0,88,-99.99,,,0.03,weatherlink.com 1.10,2013-02-19 00:24:00,
2013-02-18 19:39:00,32.8,30.0,29.55,South,170,0.0,-999.0,89,-99.99,,,0.03,weatherlink.com 1.10,2013-02-19 00:39:00,
2013-02-18 19:54:00,32.6,30.0,29.55,South,169,0.0,-999.0,90,-99.99,,,0.03,weatherlink.com 1.10,2013-02-19 00:54:00,
2013-02-18 20:09:00,32.4,30.0,29.54,South,170,0.0,-999.0,90,-99.99,,,0.03,weatherlink.com 1.10,2013-02-19 01:09:00,
2013-02-18 20:24:00,32.2,30.0,29.53,South,170,0.0,-999.0,91,-99.99,,,0.03,weatherlink.com 1.10,2013-02-19 01:24:00,
2013-02-18 20:39:00,32.0,30.0,29.52,South,169,0.0,-999.0,91,-99.99,,,0.03,weatherlink.com 1.10,2013-02-19 01:39:00,
2013-02-18 20:53:00,31.8,30.0,29.52,South,171,0.0,-999.0,91,-99.99,,,0.03,weatherlink.com 1.10,2013-02-19 01:53:00,
2013-02-18 21:09:00,31.7,30.0,29.51,South,170,0.0,-999.0,92,-99.99,,,0.03,weatherlink.com 1.10,2013-02-19 02:09:00,
2013-02-18 21:24:00,31.6,30.0,29.50,South,170,0.0,-999.0,92,-99.99,,,0.03,weatherlink.com 1.10,2013-02-19 02:24:00,
2013-02-18 21:39:00,31.7,30.0,29.51,South,170,0.0,-999.0,92,-99.99,,,0.03,weatherlink.com 1.10,2013-02-19 02:39:00,
2013-02-18 21:54:00,31.6,30.0,29.50,South,169,0.0,-999.0,92,-99.99,,,0.03,weatherlink.com 1.10,2013-02-19 02:54:00,
2013-02-18 22:09:00,31.5,30.0,29.50,South,171,0.0,-999.0,93,-99.99,,,0.03,weatherlink.com 1.10,2013-02-19 03:09:00,
2013-02-18 22:24:00,31.5,30.0,29.50,South,170,0.0,-999.0,93,-99.99,,,0.03,weatherlink.com 1.10,2013-02-19 03:24:00,
2013-02-18 22:39:00,31.7,30.0,29.49,South,170,0.0,-999.0,93,-99.99,,,0.03,weatherlink.com 1.10,2013-02-19 03:39:00,
2013-02-18 22:54:00,31.7,30.0,29.48,ENE,77,0.0,-999.0,93,-99.99,,,0.03,weatherlink.com 1.10,2013-02-19 03:54:00,
2013-02-18 23:09:00,31.6,30.0,29.48,NNE,30,0.0,-999.0,93,-99.99,,,0.03,weatherlink.com 1.10,2013-02-19 04:09:00,
2013-02-18 23:24:00,31.5,30.0,29.47,ENE,69,0.0,-999.0,93,-99.99,,,0.03,weatherlink.com 1.10,2013-02-19 04:24:00,
2013-02-18 23:39:00,31.4,30.0,29.47,ENE,65,0.0,-999.0,93,-99.99,,,0.03,weatherlink.com 1.10,2013-02-19 04:39:00,
2013-02-18 23:54:00,31.2,29.0,29.47,ENE,65,0.0,-999.0,93,-99.99,,,0.03,weatherlink.com 1.10,2013-02-19 04:54:00,